Location: Lobstick
(53.6000°N, 115.1667°W)
Time: 10:17:40
(UTC+00:00)

Gurwin Techsat 1B - Pass Details

Date: 06 December 2023
Orbit: 810 x 813 km, 98.9° (Epoch: 21 February)

Event Time Altitude Azimuth Distance (km) Brightness Sun altitude
Rises 12:54:22 0° 10° (N) 3,352 11.9 -23.4°
Reaches altitude 10° 12:57:09 10° 356° (N) 2,416 11.0 -23.0°
Enters shadow 12:58:10 14° 348° (NNW) 2,131 10.6 -22.8°
